Date String (YYYY-MM-DD hh:mm:ss) UTC,Instrument flags,Ambient pressure (hPa),Sample flow (lpm),Bypass flow (lpm),Sample temperature (°C),Ambient temperature (°C),ASC tube jacket temperature (°C),LED temperature (°C),Box temperature (°C),Sample RH (%),Span deviation,Mass concentration (μg/m³),Mass concentration (μg/m³),Mass concentration (μg/m³)
DateTimeUTC,F1_M11,P_M11,Q1_M11,Q2_M11,T1_M11,T2_M11,T3_M11,T4_M11,T5_M11,U1_M11,ZSPAN_M11,X2_M11,X0_M11,X1_M11
2022-08-27 13:00:00,,0824.1,5.01,0.00,30.5,29.3,00.0,39.4,32.3,23.5,0000.0,0004.34,0009.37,0003.79
2022-08-27 13:01:00,,0824.1,4.99,0.00,30.5,29.3,00.0,39.4,32.3,23.6,0000.0,0004.32,0009.32,0003.79
2022-08-27 13:02:00,,0824.1,5.00,0.00,30.6,29.3,00.0,39.4,32.4,23.7,0000.0,0004.29,0009.25,0003.79
2022-08-27 13:03:00,,0824.1,4.99,0.00,30.6,29.4,00.0,39.4,32.4,23.7,0000.0,0004.28,0008.91,0003.79
2022-08-27 13:04:00,,0824.1,4.99,0.00,30.6,29.4,00.0,39.4,32.4,23.5,0000.0,0004.25,0008.69,0003.78
2022-08-27 13:05:00,,0824.1,5.01,0.00,30.6,29.4,00.0,39.4,32.4,23.5,0000.0,0004.25,0008.19,0003.78
2022-08-27 13:06:00,,0824.1,5.01,0.00,30.6,29.4,00.0,39.4,32.4,23.5,0000.0,0004.26,0007.65,0003.79
2022-08-27 13:07:00,,0824.1,5.00,0.00,30.6,29.4,00.0,39.4,32.4,22.5,0000.0,0004.22,0007.41,0003.78
2022-08-27 13:08:00,,0824.0,5.01,0.00,30.6,29.4,00.0,39.4,32.4,22.7,0000.0,0004.20,0007.30,0003.77
2022-08-27 13:09:00,,0824.1,4.99,0.00,30.6,29.5,00.0,39.4,32.5,23.1,0000.0,0004.14,0007.11,0003.74
2022-08-27 13:10:00,,0824.1,4.99,0.00,30.7,29.5,00.0,39.4,32.5,23.3,0000.0,0004.14,0007.07,0003.74
2022-08-27 13:11:00,,0824.1,5.01,0.00,30.7,29.5,00.0,39.5,32.5,23.7,0000.0,0004.11,0006.76,0003.74
2022-08-27 13:12:00,,0824.1,4.99,0.00,30.7,29.5,00.0,39.5,32.5,23.9,0000.0,0004.13,0006.85,0003.74
2022-08-27 13:13:00,,0824.1,4.99,0.00,30.7,29.5,00.0,39.5,32.5,23.8,0000.0,0004.17,0007.00,0003.75
2022-08-27 13:14:00,,0824.1,5.02,0.00,30.7,29.5,00.0,39.5,32.5,23.8,0000.0,0004.22,0007.29,0003.75
2022-08-27 13:15:00,,0824.1,4.99,0.00,30.7,29.5,00.0,39.5,32.5,23.8,0000.0,0004.23,0007.34,0003.75
2022-08-27 13:16:00,,0824.1,4.99,0.00,30.7,29.6,00.0,39.5,32.5,23.8,0000.0,0004.23,0007.40,0003.75
2022-08-27 13:17:00,,0824.1,5.01,0.00,30.7,29.6,00.0,39.5,32.5,23.6,0000.0,0004.18,0007.15,0003.72
2022-08-27 13:18:00,,0824.1,5.00,0.00,30.8,29.6,00.0,39.6,32.5,23.6,0000.0,0004.19,0007.45,0003.71
2022-08-27 13:19:00,,0824.0,5.01,0.00,30.8,29.6,00.0,39.6,32.6,23.6,0000.0,0004.21,0008.27,0003.72
2022-08-27 13:20:00,,0824.1,4.99,0.00,30.8,29.6,00.0,39.6,32.6,23.8,0000.0,0004.26,0009.94,0003.73
2022-08-27 13:21:00,,0824.1,5.01,0.00,30.8,29.6,00.0,39.6,32.6,23.7,0000.0,0004.26,0010.20,0003.72
2022-08-27 13:22:00,,0824.1,4.99,0.00,30.8,29.6,00.0,39.6,32.6,23.7,0000.0,0004.24,0010.25,0003.69
2022-08-27 13:23:00,,0824.1,5.00,0.00,30.8,29.6,00.0,39.6,32.6,24.0,0000.0,0004.21,0010.22,0003.67
2022-08-27 13:24:00,,0824.1,4.99,0.00,30.8,29.6,00.0,39.6,32.6,24.2,0000.0,0004.17,0010.12,0003.65
2022-08-27 13:25:00,,0824.1,5.01,0.00,30.8,29.6,00.0,39.6,32.6,24.2,0000.0,0004.11,0009.96,0003.64
2022-08-27 13:26:00,,0824.1,5.01,0.00,30.8,29.6,00.0,39.6,32.6,23.4,0000.0,0004.08,0010.38,0003.62
2022-08-27 13:27:00,,0824.0,4.99,0.00,30.8,29.6,00.0,39.6,32.6,22.1,0000.0,0004.06,0010.67,0003.61
2022-08-27 13:28:00,,0824.1,4.99,0.00,30.8,29.6,00.0,39.6,32.6,20.7,0000.0,0004.03,0010.59,0003.59
2022-08-27 13:29:00,,0824.1,5.02,0.00,30.9,28.4,00.0,39.6,32.6,21.9,0000.0,0003.99,0010.29,0003.57
2022-08-27 13:30:00,,0824.1,5.00,0.00,30.8,27.1,00.0,39.6,32.4,21.4,0000.0,0003.99,0009.83,0003.55
2022-08-27 13:31:00,,0824.1,4.99,0.00,30.7,26.9,00.0,39.5,32.4,22.0,0000.0,0003.91,0007.96,0003.53
2022-08-27 13:32:00,,0824.1,5.01,0.00,30.6,27.2,00.0,39.4,32.2,24.2,0000.0,0003.89,0007.69,0003.52
2022-08-27 13:33:00,,0824.0,5.01,0.00,30.5,27.6,00.0,39.4,32.1,25.3,0000.0,0003.89,0007.76,0003.52
2022-08-27 13:34:00,,0824.0,4.99,0.00,30.5,27.9,00.0,39.4,32.1,24.4,0000.0,0003.92,0007.87,0003.51
2022-08-27 13:35:00,,0824.0,5.00,0.00,30.4,28.1,00.0,39.3,32.1,23.6,0000.0,0003.91,0007.84,0003.51
2022-08-27 13:36:00,,0824.0,5.00,0.00,30.4,28.3,00.0,39.3,32.1,23.9,0000.0,0003.90,0007.83,0003.49
2022-08-27 13:37:00,,0824.0,5.01,0.00,30.4,28.5,00.0,39.3,32.1,22.8,0000.0,0003.87,0007.32,0003.47
2022-08-27 13:38:00,,0824.0,5.00,0.00,30.4,28.6,00.0,39.3,32.1,23.0,0000.0,0003.83,0006.45,0003.45
2022-08-27 13:39:00,,0824.0,4.99,0.00,30.4,28.7,00.0,39.2,32.1,23.6,0000.0,0003.87,0006.66,0003.46
2022-08-27 13:40:00,,0824.0,5.00,0.00,30.4,28.8,00.0,39.2,32.1,24.2,0000.0,0003.91,0007.02,0003.47
2022-08-27 13:41:00,,0824.1,4.99,0.00,30.4,28.9,00.0,39.2,32.1,24.4,0000.0,0003.88,0006.75,0003.47
2022-08-27 13:42:00,,0824.1,5.01,0.00,30.4,29.0,00.0,39.2,32.1,24.6,0000.0,0003.92,0007.02,0003.48
2022-08-27 13:43:00,,0824.1,5.00,0.00,30.4,29.0,00.0,39.2,32.1,24.0,0000.0,0003.92,0007.06,0003.47
2022-08-27 13:44:00,,0824.1,5.02,0.00,30.4,29.1,00.0,39.2,32.1,23.4,0000.0,0003.92,0007.46,0003.46
2022-08-27 13:45:00,,0824.1,4.99,0.00,30.4,29.1,00.0,39.2,32.2,23.4,0000.0,0003.88,0007.51,0003.46
2022-08-27 13:46:00,,0824.1,5.01,0.00,30.4,29.1,00.0,39.2,32.2,23.3,0000.0,0003.87,0007.46,0003.47
2022-08-27 13:47:00,,0824.1,5.00,0.00,30.4,29.2,00.0,39.2,32.2,21.9,0000.0,0003.90,0007.49,0003.48
2022-08-27 13:48:00,,0824.1,5.00,0.00,30.4,29.2,00.0,39.2,32.2,22.0,0000.0,0003.94,0007.53,0003.51
2022-08-27 13:49:00,,0824.1,5.00,0.00,30.4,29.2,00.0,39.2,32.2,23.5,0000.0,0004.00,0007.71,0003.53
2022-08-27 13:50:00,,0824.1,4.99,0.00,30.5,29.3,00.0,39.2,32.3,24.9,0000.0,0004.02,0008.00,0003.55
2022-08-27 13:51:00,,0824.2,5.00,0.00,30.5,29.3,00.0,39.3,32.3,25.9,0000.0,0004.03,0007.93,0003.57
2022-08-27 13:52:00,,0824.1,4.99,0.00,30.5,29.3,00.0,39.3,32.3,26.2,0000.0,0004.06,0008.00,0003.59
2022-08-27 13:53:00,,0824.1,5.00,0.00,30.5,29.3,00.0,39.3,32.3,26.0,0000.0,0004.08,0007.98,0003.61
2022-08-27 13:54:00,,0824.1,5.01,0.00,30.5,29.3,00.0,39.3,32.3,25.1,0000.0,0004.12,0008.01,0003.64
2022-08-27 13:55:00,,0824.1,4.99,0.00,30.5,29.4,00.0,39.3,32.4,24.8,0000.0,0004.15,0007.70,0003.67
2022-08-27 13:56:00,,0824.1,5.00,0.00,30.5,29.4,00.0,39.3,32.4,25.2,0000.0,0004.23,0007.72,0003.70
2022-08-27 13:57:00,,0824.1,5.01,0.00,30.5,29.4,00.0,39.3,32.4,24.7,0000.0,0004.29,0007.91,0003.73
2022-08-27 13:58:00,,0824.1,5.00,0.00,30.6,29.4,00.0,39.3,32.4,25.3,0000.0,0004.32,0007.99,0003.74
2022-08-27 13:59:00,,0824.1,5.00,0.00,30.6,29.5,00.0,39.3,32.4,24.9,0000.0,0004.33,0008.05,0003.76
